Temperature
22 22 22 21 21 21 21 21 21 20 20 20 20 20 19 19 19 19 19 19 19 19 19 18 18 18 18 18 18 17 17 18 17 17 17 17 17 17 17 17 17 17 17
22 22 22 21 21 21 21 21 21 20 20 20 20 19 19 19 19 19 19 19 19 19 18 18 18 18 18 18 18 18 18 17 17 17 17 17 17 17 17 17 17 17 17
22 22 22 22 21 21 21 21 21 21 20 20 20 19 19 19 19 19 19 19 19 18 18 18 18 18 18 18 18 18 18 17 17 17 17 17 17 17 17 17 17 17 17
22 22 22 22 22 21 21 21 21 21 20 20 20 20 20 19 19 19 19 19 19 18 18 18 18 18 18 18 18 18 17 17 17 17 17 17 17 17 16 16 17 17 17
22 22 22 22 22 21 21 21 21 21 20 20 20 20 20 19 19 19 19 19 18 18 18 18 18 18 18 18 17 17 17 17 17 17 17 17 17 17 16 16 16 16 16
22 22 22 22 22 21 21 21 21 20 20 20 19 19 19 19 19 19 19 18 18 18 18 18 18 18 18 17 17 17 17 17 17 17 17 17 17 16 16 16 16 16 16
22 22 22 22 21 21 21 21 20 20 20 20 19 19 19 19 19 19 18 18 18 18 18 18 18 18 18 17 17 17 17 17 17 17 17 16 16 16 16 16 16 16 16
22 22 22 22 22 21 21 21 21 21 20 20 19 19 19 19 19 18 18 18 18 18 18 18 17 17 17 17 17 17 17 17 17 17 16 16 16 16 16 16 16 15 15
22 22 22 22 22 21 21 21 21 21 20 20 19 19 19 18 18 18 18 18 18 18 18 18 17 17 17 17 17 17 17 17 17 16 16 16 16 16 16 16 16 15 15
22 22 22 22 22 21 21 21 21 21 20 20 19 19 19 19 18 18 18 18 18 18 18 18 17 17 17 17 17 17 17 16 16 16 16 16 16 16 16 16 16 15 15
22 22 22 22 21 21 21 21 21 20 20 20 19 19 19 19 19 18 18 18 18 17 17 17 17 17 17 17 17 16 16 16 16 16 16 16 16 16 15 15 15 15 15
22 22 22 22 21 21 21 21 21 20 20 20 19 19 19 19 18 18 18 18 18 17 17 17 17 17 17 16 16 16 16 16 16 16 16 16 15 15 15 15 15 15 15
22 22 22 22 21 21 21 21 21 20 20 19 19 19 19 19 19 18 18 18 18 17 17 17 17 17 16 16 16 16 16 16 16 15 15 15 15 15 15 15 15 15 14
21 21 21 21 21 21 21 21 20 20 20 20 19 19 19 19 19 18 18 18 17 17 17 17 17 16 16 16 16 16 16 16 15 15 15 15 15 15 15 14 14 14 14
21 21 21 21 21 21 21 21 20 20 20 20 19 19 19 18 18 18 18 17 17 17 17 17 17 16 16 16 16 16 15 15 15 15 15 15 15 14 14 14 14 14 14
21 21 21 21 21 21 21 20 20 20 19 19 19 19 18 18 18 18 18 17 17 17 17 17 16 16 16 16 16 15 15 15 15 15 15 15 14 14 14 14 14 14 14
21 21 21 21 21 21 21 20 20 20 19 19 19 19 18 18 18 18 17 17 17 17 16 16 16 16 16 16 15 15 15 15 15 14 14 14 14 14 14 14 14 14 14
21 21 21 21 21 21 20 20 20 19 19 19 18 18 18 18 17 17 17 17 16 16 16 16 16 16 15 15 15 15 15 15 14 14 14 14 14 14 14 14 14 14 14
21 21 21 21 21 20 20 20 19 19 18 18 18 18 17 17 17 17 16 16 16 16 16 16 15 15 15 15 15 14 14 14 14 14 14 14 13 13 13 13 13 13 13
20 21 20 20 20 20 19 19 19 18 18 18 18 17 17 17 16 16 16 16 16 15 15 15 15 15 15 14 14 14 14 14 14 14 13 13 13 13 13 13 13 13 13
20 20 20 20 19 19 19 19 18 18 18 18 17 17 16 16 16 16 16 15 15 15 15 15 14 14 14 14 14 14 14 13 13 13 13 13 13 13 13 12 12 12 12
19 19 19 19 19 19 19 18 18 18 17 17 17 17 16 16 16 15 15 15 15 15 14 14 14 14 14 14 14 14 13 13 13 13 13 13 12 12 12 12 12 12 12
18 18 18 18 18 18 18 18 18 17 17 17 17 16 16 16 15 15 15 15 15 14 14 14 14 14 14 13 13 13 13 13 13 13 12 12 12 12 12 12 12 12 11
18 18 18 18 18 18 18 18 17 17 17 16 16 16 15 15 15 15 14 14 14 14 14 14 14 13 13 13 13 13 13 12 12 12 12 12 12 12 12 11 11 11 11
17 17 17 17 17 17 17 17 17 17 16 16 15 15 15 15 14 14 14 14 14 14 13 13 13 13 13 13 13 12 12 12 12 12 12 12 12 12 11 11 11 11 11
17 17 17 17 16 16 16 16 16 16 16 15 15 15 14 14 14 14 14 13 13 13 13 13 13 13 12 12 12 12 12 12 11 11 11 11 11 11 11 11 11 11 11
Wind_Speed
6 6 7 7 7 7 7 7 7 6 5 4 3 3 2 1 1 1 1 2 2 3 3 1 1 1 2 2 2 2 2 1 1 2 2 2 2 1 1 0 0 1 1
6 7 7 8 8 8 8 8 8 7 6 4 3 2 2 1 1 1 1 2 2 3 3 3 2 2 2 2 1 2 2 1 1 1 1 1 2 2 2 1 1 0 0
10 9 9 8 8 8 9 8 8 7 7 5 4 3 3 2 1 0 0 0 2 3 3 3 2 2 2 2 2 2 3 2 1 1 2 2 1 1 2 1 1 1 0
10 10 10 9 9 8 7 6 7 6 6 6 5 5 4 3 2 1 1 0 1 2 3 3 3 2 2 2 2 2 2 3 2 1 1 1 2 1 1 1 1 1 0
10 10 10 9 8 7 7 6 6 5 5 5 6 5 4 3 2 1 1 0 0 1 2 2 2 2 2 2 2 2 3 2 2 1 1 1 0 1 1 1 2 1 1
8 8 7 7 6 6 6 6 6 5 5 5 5 6 5 4 3 2 1 1 0 0 1 2 2 2 2 2 2 2 3 2 2 1 1 2 1 2 2 2 2 1 2
8 8 9 8 7 8 7 7 7 5 5 5 5 5 5 5 4 3 3 2 1 1 2 2 2 2 2 2 2 2 2 2 2 2 1 1 1 1 2 2 2 1 1
8 9 9 9 9 9 8 8 8 7 6 6 5 5 5 4 4 4 3 3 2 2 2 2 2 2 2 2 2 2 2 2 2 2 2 1 1 1 2 2 2 1 1
9 9 9 9 9 9 9 9 9 7 7 6 5 5 5 5 4 4 3 2 2 2 2 2 2 2 2 2 3 2 1 1 2 2 2 1 1 1 1 1 2 3 2
7 8 8 9 8 8 7 7 8 7 6 5 4 4 5 5 5 4 4 3 3 2 2 2 2 2 2 2 2 2 1 1 1 1 1 0 1 0 1 1 1 2 3
7 8 8 8 8 7 7 7 7 6 5 4 3 3 4 4 4 4 4 4 3 2 2 3 2 2 2 2 2 2 2 2 1 1 1 1 0 0 0 1 1 1 2
6 7 8 8 7 8 7 7 7 6 6 5 4 4 4 4 4 4 4 3 3 3 3 3 3 2 2 2 3 3 2 2 2 2 1 1 1 1 0 1 1 1 2
5 5 6 7 7 8 7 7 7 6 6 6 5 4 3 4 4 4 3 3 3 3 3 3 3 3 3 3 3 3 3 3 3 3 3 2 2 2 1 1 1 1 1
5 6 5 5 6 6 6 7 6 6 6 6 5 4 4 4 5 4 4 4 3 3 3 3 4 4 3 3 3 3 3 3 3 3 3 3 3 4 3 2 3 2 1
5 6 6 4 4 4 5 5 6 6 6 6 5 5 4 4 3 3 3 3 3 4 4 4 3 3 3 3 3 3 3 3 3 3 3 4 5 5 4 3 3 3 2
6 6 6 6 5 5 5 5 5 5 5 6 5 5 4 3 3 3 3 3 3 3 4 4 4 3 3 4 4 3 3 3 3 3 3 3 4 5 5 5 5 5 5
7 7 6 6 6 5 5 6 5 5 5 5 5 4 4 4 3 3 3 3 3 3 3 4 4 4 4 4 4 4 3 3 3 3 3 3 3 3 3 4 4 5 6
6 5 5 5 4 4 4 4 5 5 5 4 4 4 4 4 3 2 2 3 2 3 3 3 4 4 4 4 4 4 3 3 3 3 3 3 3 3 2 3 3 4 5
5 5 5 5 4 4 4 5 4 4 4 4 4 4 4 4 3 3 3 2 2 2 3 3 3 3 4 4 4 3 2 2 3 3 3 3 4 4 3 2 3 4 4
4 4 5 5 5 4 5 5 4 4 4 4 4 4 4 4 4 4 3 2 2 2 2 2 2 3 4 4 4 4 2 3 3 3 3 4 4 4 3 3 3 4 4
4 4 5 4 4 4 6 5 4 4 4 3 3 3 4 5 5 4 2 2 2 1 1 1 2 2 3 4 4 4 3 3 3 3 3 3 4 4 4 4 4 5 4
3 4 4 3 2 4 5 5 4 4 3 3 4 4 4 4 3 3 2 2 2 2 1 1 2 2 2 2 2 3 3 3 3 3 3 3 3 3 3 2 2 3 2
3 3 4 3 2 3 5 5 3 2 3 3 3 3 3 2 3 3 3 2 2 2 2 1 1 2 2 1 2 2 2 3 2 3 3 3 3 2 1 2 1 1 1
2 3 3 3 2 2 3 4 3 3 4 4 3 2 3 2 2 2 3 3 3 2 2 2 2 2 1 1 1 1 1 1 1 1 1 1 1 0 0 1 1 1 1
2 2 2 2 2 1 1 1 2 4 4 3 2 2 2 2 2 1 2 3 3 4 4 3 3 3 3 3 3 2 1 1 2 1 0 1 1 1 1 1 1 1 1
2 2 1 1 1 1 1 1 2 4 4 3 2 2 2 2 2 2 1 2 1 2 3 4 4 3 4 3 2 2 3 3 3 2 1 2 2 2 2 2 2 2 2
Wind_Direction
195 169 166 164 153 151 152 155 153 154 143 143 154 155 176 192 198 191 187 179 175 166 144 150 141 147 151 161 148 139 119 69 79 82 39 18 28 26 354 31 106 171 177
174 171 168 168 169 169 168 164 164 161 159 166 162 154 147 152 181 205 152 178 177 175 169 160 164 150 133 123 135 142 133 91 85 110 95 11 3 8 11 33 62 72 116
185 180 178 180 177 181 183 179 175 168 166 160 135 116 86 64 63 45 247 249 179 171 163 157 151 146 148 163 171 152 145 147 88 88 129 140 239 316 354 18 22 45 61
186 183 183 185 187 189 181 177 175 172 167 156 156 160 161 172 197 195 206 262 126 144 159 159 154 157 153 161 173 151 148 149 171 155 108 160 166 181 311 345 358 8 321
188 186 188 188 188 182 177 173 166 169 164 161 172 172 169 174 166 142 134 112 72 138 163 164 164 166 168 172 166 155 156 161 171 174 157 146 133 171 179 265 310 347 334
188 186 184 177 177 169 167 166 165 171 165 171 178 179 175 169 158 171 174 193 232 229 179 166 177 180 178 184 186 179 167 170 167 165 151 165 180 190 185 215 254 280 302
183 177 177 178 177 172 169 164 162 164 168 175 184 184 184 183 182 188 192 198 211 228 229 187 187 191 194 186 168 163 177 177 179 187 192 188 205 192 181 190 221 259 305
179 180 183 182 181 176 171 166 167 170 174 182 189 185 188 190 195 192 190 205 216 221 214 187 185 185 176 171 157 161 191 181 190 198 188 187 214 189 190 188 181 205 290
183 182 184 181 181 179 178 178 173 171 174 183 184 187 191 193 195 191 187 203 217 214 191 176 174 178 169 164 155 162 187 162 176 188 185 200 230 214 215 200 198 189 218
190 182 181 181 181 180 177 172 172 176 177 176 187 194 196 198 194 185 190 201 214 208 187 186 181 178 169 161 154 163 176 149 184 182 150 214 254 232 187 194 202 204 208
192 181 177 177 172 169 171 173 173 173 176 182 190 196 197 192 185 193 204 208 210 194 190 188 182 182 184 179 168 184 174 170 205 220 177 245 239 141 196 152 153 178 190
187 176 171 165 163 170 177 179 180 181 184 184 184 191 184 175 184 199 207 202 201 200 196 188 186 197 197 192 187 202 196 192 210 227 209 242 197 176 207 164 186 207 202
173 168 163 162 169 177 180 183 186 185 181 177 176 173 175 181 194 208 208 204 200 202 197 189 196 203 205 205 209 204 208 213 220 222 218 231 202 220 228 210 211 229 222
169 167 165 168 175 179 179 180 184 176 173 170 166 172 196 201 201 200 202 207 204 200 200 200 204 209 211 209 214 208 213 222 231 231 230 231 220 225 225 223 217 210 194
169 171 168 168 172 170 179 176 177 171 168 165 168 184 196 198 197 196 202 203 201 202 196 194 200 210 212 219 215 211 218 225 242 251 247 243 235 231 225 227 217 203 202
187 181 169 163 169 173 177 174 172 169 163 165 175 179 179 187 198 203 200 198 197 200 190 192 195 213 229 224 213 207 217 224 234 255 266 261 249 248 239 235 222 203 203
187 180 175 171 171 174 169 169 170 160 160 164 171 171 183 197 209 205 190 200 204 197 200 204 200 217 230 229 225 218 212 224 242 255 266 276 273 251 250 251 240 231 223
187 180 172 167 162 158 157 152 148 157 161 163 174 176 186 194 194 186 200 212 210 212 222 220 217 229 244 235 229 219 211 222 239 247 247 254 268 261 246 253 259 257 249
178 168 164 157 148 148 151 140 140 152 158 171 182 185 186 185 188 201 215 218 207 227 228 222 221 231 248 239 225 208 211 234 253 255 254 249 251 254 226 220 255 274 274
148 144 139 136 146 157 147 145 157 166 187 196 194 188 184 183 194 206 210 207 197 223 220 239 236 234 248 240 221 206 211 241 263 275 273 255 247 245 216 213 229 258 272
137 137 138 149 168 162 151 158 172 203 213 192 169 177 194 196 195 191 192 181 178 194 218 254 275 261 253 249 230 211 209 227 249 268 279 275 258 242 234 223 234 251 261
120 134 136 144 151 156 156 167 198 215 188 165 162 176 194 204 193 176 179 172 172 185 218 241 292 304 289 260 245 222 224 217 224 252 264 267 262 251 245 236 246 246 248
121 128 139 140 149 159 160 177 208 182 165 155 167 180 185 196 181 177 182 180 175 187 214 219 257 294 307 299 260 228 231 222 227 255 257 261 264 262 261 255 240 218 219
124 131 135 142 173 191 183 194 192 170 158 162 168 168 173 186 183 175 179 184 193 198 208 215 240 272 297 299 294 261 247 257 248 275 287 273 255 205 291 297 274 246 237
95 103 125 168 211 197 207 216 178 152 149 155 160 166 173 171 171 178 200 206 213 206 204 218 219 227 258 263 243 226 238 236 230 209 267 286 313 325 308 297 284 272 260
127 108 122 150 185 151 196 200 167 154 150 154 159 166 170 169 164 152 39 7 245 222 214 211 210 227 231 245 250 246 254 245 190 159 216 243 239 240 251 262 277 270 259
Height
1502 1504 1506 1509 1511 1513 1514 1516 1519 1520 1522 1524 1525 1526 1528 1529 1530 1531 1532 1532 1532 1533 1533 1533 1533 1533 1533 1533 1533 1533 1534 1534 1535 1535 1535 1536 1536 1536 1536 1536 1536 1536 1537
1500 1502 1505 1507 1509 1511 1513 1515 1517 1519 1522 1523 1525 1526 1527 1528 1529 1530 1531 1532 1532 1532 1533 1533 1532 1532 1532 1533 1533 1533 1533 1533 1534 1535 1535 1535 1536 1535 1535 1535 1535 1535 1536
1498 1500 1503 1505 1507 1509 1512 1514 1516 1518 1521 1523 1525 1526 1527 1528 1529 1530 1531 1531 1532 1532 1532 1532 1532 1532 1532 1532 1532 1533 1533 1533 1533 1534 1535 1535 1534 1534 1535 1535 1535 1535 1535
1496 1498 1500 1503 1506 1508 1511 1514 1516 1518 1520 1522 1523 1525 1526 1527 1528 1529 1530 1531 1531 1532 1532 1532 1532 1532 1532 1532 1532 1532 1532 1532 1532 1533 1533 1534 1534 1534 1534 1534 1534 1534 1534
1493 1496 1498 1501 1504 1507 1510 1512 1515 1517 1518 1521 1522 1524 1525 1526 1527 1528 1529 1530 1530 1531 1531 1531 1531 1531 1531 1531 1531 1531 1531 1531 1532 1532 1532 1532 1532 1532 1532 1532 1532 1532 1532
1491 1494 1497 1500 1503 1506 1508 1510 1513 1515 1518 1520 1522 1523 1524 1525 1526 1527 1528 1529 1529 1529 1530 1530 1530 1530 1530 1530 1530 1530 1530 1531 1531 1531 1531 1531 1531 1531 1531 1531 1530 1530 1531
1488 1491 1494 1497 1501 1503 1506 1509 1511 1514 1516 1519 1520 1522 1523 1524 1524 1525 1526 1527 1528 1528 1528 1529 1529 1529 1529 1529 1529 1529 1529 1529 1529 1529 1529 1529 1530 1530 1530 1529 1529 1529 1529
1486 1488 1491 1495 1498 1501 1504 1507 1509 1512 1515 1517 1518 1519 1521 1522 1523 1524 1525 1526 1526 1527 1527 1527 1527 1527 1528 1528 1528 1528 1528 1528 1528 1528 1528 1528 1528 1528 1528 1528 1528 1527 1527
1483 1486 1489 1493 1496 1499 1501 1504 1507 1509 1512 1514 1516 1517 1518 1520 1521 1522 1523 1524 1524 1525 1525 1526 1526 1526 1526 1526 1526 1526 1526 1526 1526 1526 1526 1526 1526 1526 1526 1526 1526 1527 1525
1482 1484 1487 1490 1493 1497 1500 1503 1505 1507 1510 1512 1514 1515 1517 1518 1519 1520 1521 1522 1522 1523 1523 1524 1524 1524 1524 1525 1525 1525 1525 1525 1525 1524 1524 1524 1524 1524 1524 1524 1524 1524 1524
1479 1482 1485 1488 1491 1494 1497 1500 1503 1505 1507 1509 1512 1513 1515 1516 1517 1518 1519 1520 1521 1521 1521 1522 1522 1522 1523 1523 1523 1523 1523 1523 1523 1523 1523 1523 1523 1522 1522 1522 1522 1522 1522
1477 1480 1483 1486 1489 1492 1495 1498 1500 1502 1505 1507 1510 1511 1513 1514 1515 1516 1517 1518 1518 1519 1519 1520 1520 1520 1521 1521 1521 1521 1522 1522 1521 1521 1521 1521 1521 1521 1520 1520 1520 1520 1520
1476 1479 1482 1484 1487 1490 1493 1496 1498 1500 1503 1506 1507 1509 1511 1512 1513 1514 1515 1516 1516 1517 1517 1518 1518 1518 1519 1519 1519 1519 1519 1519 1519 1519 1519 1519 1519 1519 1518 1518 1517 1517 1517
1475 1478 1480 1483 1486 1489 1491 1494 1496 1499 1501 1503 1505 1507 1508 1510 1511 1512 1513 1513 1514 1514 1515 1515 1516 1516 1517 1517 1517 1517 1517 1517 1517 1517 1517 1517 1517 1516 1516 1516 1515 1515 1515
1474 1476 1479 1482 1485 1487 1490 1492 1494 1497 1499 1501 1502 1504 1506 1508 1509 1510 1510 1510 1511 1511 1512 1513 1513 1514 1514 1514 1514 1514 1514 1514 1514 1514 1514 1514 1514 1514 1513 1513 1513 1513 1512
1473 1476 1478 1481 1484 1486 1488 1490 1492 1495 1497 1499 1500 1502 1504 1506 1506 1507 1507 1508 1508 1509 1509 1509 1510 1511 1511 1511 1511 1511 1511 1511 1511 1511 1511 1511 1511 1511 1511 1511 1510 1510 1510
1471 1474 1476 1479 1482 1484 1486 1488 1490 1492 1494 1496 1498 1499 1501 1502 1503 1504 1504 1504 1505 1506 1506 1506 1507 1507 1507 1508 1508 1508 1508 1508 1508 1508 1508 1508 1508 1508 1507 1507 1507 1507 1506
1471 1473 1475 1477 1480 1482 1485 1486 1488 1490 1492 1493 1494 1496 1498 1499 1500 1501 1501 1502 1502 1503 1503 1503 1503 1504 1504 1504 1505 1505 1505 1504 1504 1504 1504 1504 1503 1504 1504 1503 1503 1503 1503
1470 1472 1475 1477 1479 1481 1483 1485 1486 1488 1490 1490 1492 1493 1495 1495 1496 1497 1498 1499 1499 1499 1500 1500 1500 1500 1500 1501 1501 1501 1501 1500 1500 1500 1500 1500 1500 1500 1500 1500 1499 1499 1499
1469 1471 1474 1476 1478 1479 1481 1483 1484 1486 1487 1488 1489 1490 1492 1493 1493 1494 1495 1496 1496 1496 1497 1497 1497 1497 1497 1497 1497 1497 1497 1496 1496 1496 1496 1496 1496 1496 1496 1496 1496 1495 1495
1468 1470 1472 1474 1476 1478 1479 1480 1481 1483 1485 1486 1487 1488 1490 1490 1491 1492 1492 1493 1493 1493 1493 1493 1494 1494 1494 1494 1494 1494 1494 1493 1493 1492 1492 1492 1492 1493 1493 1493 1492 1492 1492
1467 1470 1471 1472 1474 1476 1477 1478 1480 1481 1482 1483 1484 1486 1487 1488 1488 1489 1489 1489 1490 1490 1490 1491 1491 1491 1491 1491 1491 1490 1490 1490 1490 1489 1489 1489 1489 1489 1490 1489 1489 1489 1489
1467 1469 1470 1471 1473 1474 1475 1476 1478 1479 1480 1480 1481 1483 1484 1486 1486 1486 1486 1487 1487 1487 1488 1488 1487 1487 1487 1487 1488 1487 1487 1487 1486 1486 1486 1486 1486 1486 1486 1486 1486 1485 1485
1466 1467 1468 1469 1471 1472 1473 1475 1476 1476 1477 1478 1479 1480 1481 1482 1483 1483 1483 1484 1484 1484 1485 1484 1484 1484 1484 1484 1485 1484 1484 1484 1484 1483 1483 1483 1483 1483 1482 1482 1482 1482 1482
1466 1466 1467 1468 1469 1470 1471 1473 1473 1474 1474 1475 1476 1477 1478 1479 1479 1480 1481 1481 1481 1482 1482 1481 1481 1481 1481 1481 1482 1481 1481 1481 1481 1480 1480 1480 1480 1479 1479 1479 1479 1478 1478
1465 1465 1466 1467 1468 1469 1470 1471 1472 1472 1472 1473 1474 1475 1475 1476 1476 1477 1477 1478 1478 1479 1479 1479 1479 1479 1479 1479 1479 1478 1478 1478 1478 1478 1477 1477 1476 1476 1476 1476 1476 1475 1475